User: anonymous   Login
Location: Bailleul
(50.3375°N, 2.8513°E)
Time: 18:25:43
(UTC+00:00)
Language:

Cosmos 1850 Rocket - Orbit

View from above orbital plane
View from above orbital plane
View from above satellite
View from above satellite

Ground track
Ground track

The orbit data is extracted from the following two-line orbital elements,

1 18096U 87049B   21262.70360914  .00000110  00000-0  46075-4 0  9993
2 18096  74.0402 248.8663 0021005  35.1915 325.0621 14.36598182795032
Epoch (UTC): 19 September 2021 16:53:11
Eccentricity: 0.0021005
inclination: 74.0402°
perigee height: 755 km
apogee height: 785 km
right ascension of ascending node: 248.8663°
argument of perigee: 35.1915°
revolutions per day: 14.36598182
mean anomaly at epoch: 325.0621°
orbit number at epoch: 79503

The dashed part of the orbit path shows where the satellite is in the earth's shadow,  

DLR